H1 CPF 2 NER 2024 3 13 9 073 01 glonass145 H2 2213001 9145 54031 2024 3 13 0 0 0 2024 3 16 23 45 0 900 1 1 0 0 0 1 H9 10 0 60382 0.00000 0 12699067.261 8126466.145 -20565975.066 10 0 60382 900.00000 0 10108033.479 8498111.940 -21815364.143 10 0 60382 1800.00000 0 7426926.303 9087434.655 -22640737.463 10 0 60382 2700.00000 0 4724915.032 9892816.452 -23026108.706 10 0 60382 3600.00000 0 2070450.407 10900323.674 -22964046.451 10 0 60382 4500.00000 0 -471360.537 12084185.983 -22455813.796 10 0 60382 5400.00000 0 -2841230.804 13407789.904 -21511339.376 10 0 60382 6300.00000 0 -4987918.894 14825145.286 -20149020.676 10 0 60382 7200.00000 0 -6870111.887 16282763.443 -18395363.657 10 0 60382 8100.00000 0 -8457889.049 17721868.442 -16284465.738 10 0 60382 9000.00000 0 -9733706.400 19080849.058 -13857352.088 10 0 60382 9900.00000 0 -10692862.624 20297848.685 -11161177.973 10 0 60382 10800.00000 0 -11343428.388 21313384.673 -8248312.508 10 0 60382 11700.00000 0 -11705643.527 22072887.160 -5175321.453 10 0 60382 12600.00000 0 -11810808.814 22529050.698 -2001868.801 10 0 60382 13500.00000 0 -11699720.193 22643899.776 1210441.487 10 0 60382 14400.00000 0 -11420712.495 22390481.215 4399261.000 10 0 60382 15300.00000 0 -11027396.058 21754112.079 7502706.250 10 0 60382 16200.00000 0 -10576182.411 20733130.355 10460558.272 10 0 60382 17100.00000 0 -10123704.006 19339116.488 13215429.110 10 0 60382 18000.00000 0 -9724237.216 17596576.076 15713872.535 10 0 60382 18900.00000 0 -9427237.536 15542096.448 17907417.631 10 0 60382 19800.00000 0 -9275091.031 13223011.797 19753505.547 10 0 60382 20700.00000 0 -9301176.844 10695631.892 21216311.624 10 0 60382 21600.00000 0 -9528322.441 8023107.436 22267437.515 10 0 60382 22500.00000 0 -9967716.783 5273019.982 22886460.360 10 0 60382 23400.00000 0 -10618327.436 2514795.704 23061328.788 10 0 60382 24300.00000 0 -11466846.674 -182950.559 22788598.332 10 0 60382 25200.00000 0 -12488169.542 -2755031.752 22073501.739 10 0 60382 26100.00000 0 -13646384.747 -5142157.874 20929852.584 10 0 60382 27000.00000 0 -14896237.739 -7293156.419 19379783.639 10 0 60382 27900.00000 0 -16185005.657 -9166852.569 17453324.379 10 0 60382 28800.00000 0 -17454706.279 -10733531.554 15187825.069 10 0 60382 29700.00000 0 -18644548.932 -11975922.915 12627237.791 10 0 60382 30600.00000 0 -19693524.812 -12889666.138 9821267.609 10 0 60382 31500.00000 0 -20543027.803 -13483238.721 6824409.808 10 0 60382 32400.00000 0 -21139395.288 -13777350.303 3694891.591 10 0 60382 33300.00000 0 -21436261.303 -13803828.915 493538.754 10 0 60382 34200.00000 0 -21396622.146 -13604047.097 -2717410.329 10 0 60382 35100.00000 0 -20994526.296 -13226954.962 -5875519.824 10 0 60382 36000.00000 0 -20216316.272 -12726804.133 -8919376.363 10 0 60382 36900.00000 0 -19061369.138 -12160659.792 -11789789.182 10 0 60382 37800.00000 0 -17542303.458 -11585806.918 -14430946.410 10 0 60382 38700.00000 0 -15684643.187 -11057161.311 -16791504.360 10 0 60382 39600.00000 0 -13525951.939 -10624795.562 -18825588.175 10 0 60382 40500.00000 0 -11114473.415 -10331685.143 -20493684.203 10 0 60382 41400.00000 0 -8507334.503 -10211770.180 -21763406.803 10 0 60382 42300.00000 0 -5768385.813 -10288414.920 -22610124.958 10 0 60382 43200.00000 0 -2965769.424 -10573329.915 -23017436.991 10 0 60382 44100.00000 0 -169314.753 -11066002.291 -22977484.675 10 0 60382 45000.00000 0 2552129.538 -11753657.981 -22491101.188 10 0 60382 45900.00000 0 5133317.320 -12611757.431 -21567790.506 10 0 60382 46800.00000 0 7515072.270 -13605003.867 -20225538.960 10 0 60382 47700.00000 0 9646499.014 -14688821.732 -18490462.834 10 0 60382 48600.00000 0 11486847.276 -15811243.201 -16396298.865 10 0 60382 49500.00000 0 13006952.709 -16915123.546 -13983747.502 10 0 60382 50400.00000 0 14190195.615 -17940592.281 -11299681.514 10 0 60382 51300.00000 0 15032938.982 -18827637.066 -8396235.200 10 0 60382 52200.00000 0 15544428.915 -19518711.651 -5329791.727 10 0 60382 53100.00000 0 15746163.016 -19961258.048 -2159888.265 10 0 60382 54000.00000 0 15670754.530 -20110036.578 1051939.805 10 0 60382 54900.00000 0 15360341.188 -19929165.512 4243353.068 10 0 60382 55800.00000 0 14864606.704 -19393784.075 7352417.261 10 0 60382 56700.00000 0 14238499.110 -18491268.494 10318803.872 10 0 60382 57600.00000 0 13539742.675 -17221949.413 13084958.782 10 0 60382 58500.00000 0 12826248.698 -15599299.997 15597216.247 10 0 60382 59400.00000 0 12153534.521 -13649586.117 17806836.814 10 0 60382 60300.00000 0 11572259.516 -11410992.452 19670949.329 10 0 60382 61200.00000 0 11125981.752 -8932260.153 21153379.182 10 0 60382 62100.00000 0 10849229.609 -6270891.902 22225347.237 10 0 60382 63000.00000 0 10765969.323 -3490998.033 22866026.402 10 0 60382 63900.00000 0 10888532.866 -660872.223 23062945.438 10 0 60382 64800.00000 0 11217051.287 2149603.705 22812232.467 10 0 60382 65700.00000 0 11739417.641 4871619.227 22118693.488 10 0 60382 66600.00000 0 12431781.519 7440049.474 20995724.189 10 0 60382 67500.00000 0 13259555.029 9795916.925 19465056.335 10 0 60382 68400.00000 0 14178888.709 11888599.028 17556342.979 10 0 60382 69300.00000 0 15138556.000 13677690.609 15306589.816 10 0 60382 70200.00000 0 16082167.663 15134444.095 12759442.871 10 0 60382 71100.00000 0 16950623.335 16242727.967 9964345.641 10 0 60382 72000.00000 0 17684697.096 16999463.802 6975581.464 10 0 60382 72900.00000 0 18227647.880 17414524.035 3851219.434 10 0 60382 73800.00000 0 18527744.157 17510095.266 651984.257 10 0 60382 74700.00000 0 18540595.555 17319534.462 -2559927.670 10 0 60382 75600.00000 0 18231192.017 16885766.914 -5722062.451 10 0 60382 76500.00000 0 17575563.342 16259294.311 -8772928.869 10 0 60382 77400.00000 0 16561987.819 15495897.817 -11653199.984 10 0 60382 78300.00000 0 15191697.899 14654134.057 -14306872.067 10 0 60382 79200.00000 0 13479052.176 13792730.687 -16682357.652 10 0 60382 80100.00000 0 11451165.472 12967992.172 -18733491.014 10 0 60382 81000.00000 0 9147011.746 12231325.853 -20420426.296 10 0 60382 81900.00000 0 6616036.755 11626993.024 -21710410.889 10 0 60382 82800.00000 0 3916337.957 11190179.960 -22578419.285 10 0 60382 83700.00000 0 1112487.106 10945470.063 -23007635.523 10 0 60382 84600.00000 0 -1726914.211 10905781.167 -22989775.407 10 0 60382 85500.00000 0 -4531844.843 11071812.372 -22525242.729 10 0 60383 0.00000 0 -7233531.993 11432023.150 -21623117.085 10 0 60383 900.00000 0 -9767068.043 11963145.421 -20300973.283 10 0 60383 1800.00000 0 -12073864.729 12631206.147 -18584537.359 10 0 60383 2700.00000 0 -14103848.408 13393017.744 -16507184.361 10 0 60383 3600.00000 0 -15817302.484 14198072.965 -14109288.651 10 0 60383 4500.00000 0 -17186282.830 14990764.446 -11437438.852 10 0 60383 5400.00000 0 -18195548.110 15712835.324 -8543532.561 10 0 60383 6300.00000 0 -18842967.414 16305957.526 -5483768.289 10 0 60383 7200.00000 0 -19139389.319 16714328.914 -2317554.175 10 0 60383 8100.00000 0 -19107979.132 16887179.597 893645.309 10 0 60383 9000.00000 0 -18783053.220 16781081.438 4087502.188 10 0 60383 9900.00000 0 -18208460.448 16361963.082 7202033.979 10 0 60383 10800.00000 0 -17435579.632 15606745.121 10176805.274 10 0 60383 11700.00000 0 -16521017.965 14504526.038 12954098.501 10 0 60383 12600.00000 0 -15524107.738 13057268.363 15480031.134 10 0 60383 13500.00000 0 -14504306.962 11279955.489 17705597.862 10 0 60383 14400.00000 0 -13518613.284 9200211.594 19587617.786 10 0 60383 15300.00000 0 -12619099.827 6857399.620 21089568.704 10 0 60383 16200.00000 0 -11850676.256 4301233.770 22182292.789 10 0 60383 17100.00000 0 -11249168.788 1589963.181 22844560.483 10 0 60383 18000.00000 0 -10839799.467 -1211798.916 23063482.079 10 0 60383 18900.00000 0 -10636128.262 -4035511.574 22834759.285 10 0 60383 19800.00000 0 -10639502.290 -6811308.114 22162771.929 10 0 60383 20700.00000 0 -10839035.305 -9470656.807 21060497.957 10 0 60383 21600.00000 0 -11212118.537 -11948970.840 19549267.834 10 0 60383 22500.00000 0 -11725441.716 -14188059.992 17658357.479 10 0 60383 23400.00000 0 -12336481.776 -16138322.769 15424426.883 10 0 60383 24300.00000 0 -12995396.953 -17760588.247 12890814.522 10 0 60383 25200.00000 0 -13647246.796 -19027531.230 10106700.475 10 0 60383 26100.00000 0 -14234444.586 -19924601.864 7126153.998 10 0 60383 27000.00000 0 -14699338.507 -20450431.040 4007083.668 10 0 60383 27900.00000 0 -14986812.173 -20616694.965 810110.470 10 0 60383 28800.00000 0 -15046793.926 -20447444.898 -2402614.015 10 0 60383 29700.00000 0 -14836567.928 -19977930.776 -5568620.854 10 0 60383 30600.00000 0 -14322788.259 -19252968.839 -8626344.163 10 0 60383 31500.00000 0 -13483109.696 -18324922.777 -11516324.135 10 0 60383 32400.00000 0 -12307365.163 -17251384.414 -14182368.529 10 0 60383 33300.00000 0 -10798238.963 -16092652.454 -16572649.421 10 0 60383 34200.00000 0 -8971406.362 -14909116.360 -18640713.374 10 0 60383 35100.00000 0 -6855132.701 -13758656.195 -20346385.203 10 0 60383 36000.00000 0 -4489347.907 -12694168.234 -21656547.810 10 0 60383 36900.00000 0 -1924234.436 -11761320.675 -22545783.174 10 0 60383 37800.00000 0 781613.010 -10996633.665 -22996862.480 10 0 60383 38700.00000 0 3563379.923 -10425963.951 -23001076.404 10 0 60383 39600.00000 0 6352485.774 -10063457.287 -22558399.637 10 0 60383 40500.00000 0 9079197.739 -9911011.846 -21677486.960 10 0 60383 41400.00000 0 11675296.318 -9958274.449 -20375501.267 10 0 60383 42300.00000 0 14076682.733 -10183168.966 -18677777.085 10 0 60383 43200.00000 0 16225820.467 -10552934.000 -16617326.204 10 0 60383 44100.00000 0 18073910.222 -11025625.547 -14234194.935 10 0 60383 45000.00000 0 19582708.602 -11552020.880 -11574685.377 10 0 60383 45900.00000 0 20725915.646 -12077843.011 -8690455.662 10 0 60383 46800.00000 0 21490074.314 -12546211.608 -5637516.529 10 0 60383 47700.00000 0 21874945.310 -12900216.643 -2475143.680 10 0 60383 48600.00000 0 21893342.585 -13085505.895 735272.926 10 0 60383 49500.00000 0 21570437.416 -13052776.731 3931420.433 10 0 60383 50400.00000 0 20942561.168 -12760066.650 7051271.767 10 0 60383 51300.00000 0 20055557.841 -12174745.512 10034288.081 10 0 60383 52200.00000 0 18962756.269 -11275124.905 12822591.521 10 0 60383 53100.00000 0 17722647.678 -10051616.244 15362085.588 10 0 60383 54000.00000 0 16396366.442 -8507388.095 17603501.479 10 0 60383 54900.00000 0 15045079.909 -6658494.188 19503350.469 10 0 60383 55800.00000 0 13727396.767 -4533465.656 21024764.195 10 0 60383 56700.00000 0 12496902.331 -2172383.365 22138207.085 10 0 60383 57600.00000 0 11399923.718 374532.312 22822047.587 10 0 60383 58500.00000 0 10473618.052 3048756.864 23062977.533 10 0 60383 59400.00000 0 9744463.337 5785647.170 22856271.779 10 0 60383 60300.00000 0 9227214.789 8516887.745 22205883.142 10 0 60383 61200.00000 0 8924370.037 11173097.254 21124370.615 10 0 60383 62100.00000 0 8826165.425 13686488.164 19632661.842 10 0 60383 63000.00000 0 8911103.507 15993469.924 17759653.818 10 0 60383 63900.00000 0 9146989.582 18037088.071 15541658.833 10 0 60383 64800.00000 0 9492433.768 19769198.194 13021705.623 10 0 60383 65700.00000 0 9898755.399 21152284.427 10248708.522 10 0 60383 66600.00000 0 10312209.397 22160846.591 7276520.231 10 0 60383 67500.00000 0 10676440.428 22782298.087 4162886.247 10 0 60383 68400.00000 0 10935060.728 23017336.958 968321.190 10 0 60383 69300.00000 0 11034241.923 22879774.592 -2245070.844 10 0 60383 70200.00000 0 10925210.391 22395829.668 -5414808.511 10 0 60383 71100.00000 0 10566539.504 21602917.246 -8479253.789 10 0 60383 72000.00000 0 9926140.626 20547984.521 -11378816.359 10 0 60383 72900.00000 0 8982867.516 19285464.041 -14057117.627 10 0 60383 73800.00000 0 7727665.118 17874931.211 -16462091.125 10 0 60383 74700.00000 0 6164213.193 16378565.402 -18546997.378 10 0 60383 75600.00000 0 4309036.514 14858521.997 -20271333.309 10 0 60383 76500.00000 0 2191076.020 13374326.259 -21601618.545 10 0 60383 77400.00000 0 -149261.990 11980398.682 -22512043.530 10 0 60383 78300.00000 0 -2661539.648 10723815.570 -22984967.337 10 0 60383 79200.00000 0 -5287145.161 9642398.379 -23011255.966 10 0 60383 80100.00000 0 -7961497.485 8763211.321 -22590455.145 10 0 60383 81000.00000 0 -10616506.867 8101529.330 -21730794.696 10 0 60383 81900.00000 0 -13183189.486 7660318.670 -20449024.789 10 0 60383 82800.00000 0 -15594328.054 7430250.910 -18770087.451 10 0 60383 83700.00000 0 -17787068.329 7390248.618 -16726629.796 10 0 60383 84600.00000 0 -19705344.178 7508538.821 -14358368.358 10 0 60383 85500.00000 0 -21302030.826 7744169.053 -11711316.756 10 0 60384 0.00000 0 -22540737.158 8048921.332 -8836891.822 10 0 60384 900.00000 0 -23397163.605 8369542.921 -5790913.811 10 0 60384 1800.00000 0 -23859968.027 8650198.791 -2632523.990 10 0 60384 2700.00000 0 -23931106.346 8835042.326 576964.479 10 0 60384 3600.00000 0 -23625632.691 8870794.890 3775256.188 10 0 60384 4500.00000 0 -22970968.893 8709225.006 6900281.859 10 0 60384 5400.00000 0 -22005674.533 8309422.014 9891401.636 10 0 60384 6300.00000 0 -20777769.708 7639767.737 12690579.861 10 0 60384 7200.00000 0 -19342681.342 6679522.421 15243508.516 10 0 60384 8100.00000 0 -17760899.467 5419957.468 17500657.705 10 0 60384 9000.00000 0 -16095441.780 3864986.413 19418233.105 10 0 60384 9900.00000 0 -14409232.639 2031266.686 20959022.197 10 0 60384 10800.00000 0 -12762505.912 -52233.348 22093113.357 10 0 60384 11700.00000 0 -11210339.885 -2345185.305 22798474.372 10 0 60384 12600.00000 0 -9800426.777 -4797331.375 23061379.557 10 0 60384 13500.00000 0 -8571169.479 -7350336.482 22876677.464 10 0 60384 14400.00000 0 -7550184.441 -9939986.352 22247894.050 10 0 60384 15300.00000 0 -6753272.768 -12498641.407 21187169.132 10 0 60384 16200.00000 0 -6183902.061 -14957845.640 19715026.953 10 0 60384 17100.00000 0 -5833220.309 -17250982.960 17859984.675 10 0 60384 18000.00000 0 -5680600.961 -19315871.156 15658005.676 10 0 60384 18900.00000 0 -5694696.014 -21097185.887 13151807.465 10 0 60384 19800.00000 0 -5834952.637 -22548613.861 10390036.910 10 0 60384 20700.00000 0 -6053529.142 -23634645.216 7426328.241 10 0 60384 21600.00000 0 -6297529.124 -24331930.042 4318261.778 10 0 60384 22500.00000 0 -6511458.915 -24630141.986 1126243.539 10 0 60384 23400.00000 0 -6639803.719 -24532312.631 -2087672.246 10 0 60384 24300.00000 0 -6629612.630 -24054622.471 -5260994.347 10 0 60384 25200.00000 0 -6432982.063 -23225657.292 -8332015.272 10 0 60384 26100.00000 0 -6009331.397 -22085161.583 -11241017.000 10 0 60384 27000.00000 0 -5327373.353 -20682341.724 -13931437.474 10 0 60384 27900.00000 0 -4366694.601 -19073790.855 -16350974.598 10 0 60384 28800.00000 0 -3118878.747 -17321123.261 -18452605.701 10 0 60384 29700.00000 0 -1588123.196 -15488418.082 -20195502.488 10 0 60384 30600.00000 0 208677.087 -13639580.058 -21545823.684 10 0 60384 31500.00000 0 2242383.386 -11835728.184 -22477370.208 10 0 60384 32400.00000 0 4472586.470 -10132721.593 -22972090.573 10 0 60384 33300.00000 0 6849059.348 -8578925.894 -23020427.206 10 0 60384 34200.00000 0 9313629.571 -7213312.818 -22621497.476 10 0 60384 35100.00000 0 11802393.669 -6063971.746 -21783106.411 10 0 60384 36000.00000 0 14248182.067 -5147094.310 -20521591.185 10 0 60384 36900.00000 0 16583172.394 -4466473.354 -18861500.636 10 0 60384 37800.00000 0 18741542.880 -4013535.898 -16835116.087 10 0 60384 38700.00000 0 20662055.898 -3767907.461 -14481822.743 10 0 60384 39600.00000 0 22290464.392 -3698482.782 -11847343.748 10 0 60384 40500.00000 0 23581641.378 -3764956.822 -8982851.656 10 0 60384 41400.00000 0 24501344.053 -3919750.564 -5943974.405 10 0 60384 42300.00000 0 25027539.304 -4110249.618 -2789715.111 10 0 60384 43200.00000 0 25151235.643 -4281260.435 418693.344 10 0 60384 44100.00000 0 24876787.270 -4377579.838 3618976.629 10 0 60384 45000.00000 0 24221657.988 -4346568.778 6749026.898 10 0 60384 45900.00000 0 23215655.367 -4140621.139 9748106.817 10 0 60384 46800.00000 0 21899667.627 -3719422.839 12558026.225 10 0 60384 47700.00000 0 20323956.513 -3051905.379 15124268.592 10 0 60384 48600.00000 0 18546077.850 -2117810.881 17397045.561 10 0 60384 49500.00000 0 16628516.840 -908801.981 19332259.450 10 0 60384 50400.00000 0 14636136.902 570930.969 20892355.391 10 0 60384 51300.00000 0 12633548.352 2304591.946 22047047.078 10 0 60384 52200.00000 0 10682506.315 4263235.050 22773902.555 10 0 60384 53100.00000 0 8839445.910 6406736.385 23058779.067 10 0 60384 54000.00000 0 7153256.816 8685242.893 22896098.820 10 0 60384 54900.00000 0 5663389.305 11041039.240 22288960.392 10 0 60384 55800.00000 0 4398370.084 13410756.358 21249083.438 10 0 60384 56700.00000 0 3374789.190 15727830.960 19796587.377 10 0 60384 57600.00000 0 2596799.656 17925114.673 17959607.727 10 0 60384 58500.00000 0 2056150.358 19937524.829 15773756.815 10 0 60384 59400.00000 0 1732750.163 21704626.919 13281438.521 10 0 60384 60300.00000 0 1595739.219 23173041.110 10531029.628 10 0 60384 61200.00000 0 1605021.873 24298572.153 7575943.115 10 0 60384 62100.00000 0 1713196.089 25047973.312 4473591.238 10 0 60384 63000.00000 0 1867797.323 25400269.966 1284268.452 10 0 60384 63900.00000 0 2013761.287 25347586.978 -1930023.846 10 0 60384 64800.00000 0 2096000.559 24895444.697 -5106787.454 10 0 60384 65700.00000 0 2061985.009 24062510.950 -8184248.190 10 0 60384 66600.00000 0 1864215.722 22879819.215 -11102562.905 10 0 60384 67500.00000 0 1462486.538 21389486.026 -13804988.417 10 0 60384 68400.00000 0 825836.443 19642981.844 -16238989.055 10 0 60384 69300.00000 0 -65890.816 17699028.226 -18357260.721 10 0 60384 70200.00000 0 -1220946.772 15621209.943 -20118651.370 10 0 60384 71100.00000 0 -2635085.259 13475402.438 -21488960.023 10 0 60384 72000.00000 0 -4291502.284 11327122.534 -22441598.979 10 0 60384 72900.00000 0 -6161312.088 9238913.181 -22958106.804 10 0 60384 73800.00000 0 -8204540.246 7267871.223 -23028502.626 10 0 60384 74700.00000 0 -10371592.919 5463420.902 -22651475.370 10 0 60384 75600.00000 0 -12605141.537 3865425.187 -21834404.768 10 0 60384 76500.00000 0 -14842344.824 2502712.702 -20593214.074 10 0 60384 77400.00000 0 -17017316.007 1392080.496 -18952057.576 10 0 60384 78300.00000 0 -19063732.780 537812.933 -16942849.069 10 0 60384 79200.00000 0 -20917481.609 -68264.643 -14604640.377 10 0 60384 80100.00000 0 -22519226.400 -446201.193 -11982861.886 10 0 60384 81000.00000 0 -23816794.590 -626830.113 -9128439.704 10 0 60384 81900.00000 0 -24767281.275 -650221.344 -6096806.432 10 0 60384 82800.00000 0 -25338783.609 -563741.720 -2946824.745 10 0 60384 83700.00000 0 -25511693.140 -419806.280 260355.300 10 0 60384 84600.00000 0 -25279492.208 -273416.266 3462482.985 10 0 60384 85500.00000 0 -24649021.250 -179588.394 6597414.437 10 0 60385 0.00000 0 -23640206.160 -190784.573 9604317.109 10 0 60385 900.00000 0 -22285256.665 -354451.102 12424849.366 10 0 60385 1800.00000 0 -20627370.882 -710771.695 15004288.284 10 0 60385 2700.00000 0 -18718998.472 -1290729.588 17292589.291 10 0 60385 3600.00000 0 -16619736.214 -2114560.979 19245353.350 10 0 60385 4500.00000 0 -14393943.215 -3190665.556 20824684.933 10 0 60385 5400.00000 0 -12108174.983 -4515020.757 21999924.371 10 0 60385 6300.00000 0 -9828542.807 -6071125.366 22748240.860 10 0 60385 7200.00000 0 -7618107.841 -7830476.013 23055075.035 10 0 60385 8100.00000 0 -5534417.658 -9753557.996 22914422.805 10 0 60385 9000.00000 0 -3627287.017 -11791310.443 22328955.025 10 0 60385 9900.00000 0 -1936914.484 -13887006.060 21309970.492 10 0 60385 10800.00000 0 -492412.567 -15978468.336 19877182.797 10 0 60385 11700.00000 0 689188.078 -18000534.845 18058344.539 10 0 60385 12600.00000 0 1603419.454 -19887664.709 15888715.473 10 0 60385 13500.00000 0 2258322.578 -21576581.893 13410384.119 10 0 60385 14400.00000 0 2673862.246 -23008844.122 10671455.260 10 0 60385 15300.00000 0 2880835.405 -24133229.843 7725118.563 10 0 60385 16200.00000 0 2919319.660 -24907842.883 4628616.035 10 0 60385 17100.00000 0 2836728.101 -25301846.083 1442128.309 10 0 60385 18000.00000 0 2685553.321 -25296750.464 -1772398.371 10 0 60385 18900.00000 0 2520896.884 -24887205.123 -4952461.196 10 0 60385 19800.00000 0 2397889.762 -24081254.124 -8036221.715 10 0 60385 20700.00000 0 2369113.970 -22900049.069 -10963714.103 10 0 60385 21600.00000 0 2482135.611 -21377029.281 -13678016.529 10 0 60385 22500.00000 0 2777254.822 -19556603.894 -16126362.194 10 0 60385 23400.00000 0 3285568.761 -17492391.314 -18261167.936 10 0 60385 24300.00000 0 4027430.372 -15245090.001 -20040960.162 10 0 60385 25200.00000 0 5011368.856 -12880069.880 -21431180.132 10 0 60385 26100.00000 0 6233518.047 -10464785.260 -22404853.153 10 0 60385 27000.00000 0 7677577.480 -8066117.311 -22943109.096 10 0 60385 27900.00000 0 9315308.405 -5747756.706 -23035544.637 10 0 60385 28800.00000 0 11107544.563 -3567735.130 -22680420.712 10 0 60385 29700.00000 0 13005675.955 -1576207.751 -21884691.818 10 0 60385 30600.00000 0 14953544.068 186421.936 -20663866.981 10 0 60385 31500.00000 0 16889669.778 1690957.914 -19041705.282 10 0 60385 32400.00000 0 18749721.260 2920388.797 -17049751.967 10 0 60385 33300.00000 0 20469119.134 3870346.991 -14726724.085 10 0 60385 34200.00000 0 21985670.236 4549032.249 -12117757.484 10 0 60385 35100.00000 0 23242120.058 4976604.332 -9273529.659 10 0 60385 36000.00000 0 24188517.268 5184071.750 -6249275.334 10 0 60385 36900.00000 0 24784291.340 5211724.629 -3103713.887 10 0 60385 37800.00000 0 24999956.348 5107178.862 102090.553 10 0 60385 38700.00000 0 24818369.516 4923114.971 3305914.131 10 0 60385 39600.00000 0 24235491.773 4714807.947 6445580.234 10 0 60385 40500.00000 0 23260618.382 4537552.969 9460164.846 10 0 60385 41400.00000 0 21916069.910 4444096.245 12291176.853 10 0 60385 42300.00000 0 20236356.380 4482179.859 14883690.342 10 0 60385 43200.00000 0 18266849.368 4692304.589 17187407.119 10 0 60385 44100.00000 0 16062017.288 5105805.415 19157629.091 10 0 60385 45000.00000 0 13683297.137 5743321.213 20756122.052 10 0 60385 45900.00000 0 11196690.969 6613723.589 21951854.593 10 0 60385 46800.00000 0 8670186.562 7713550.598 22721598.303 10 0 60385 47700.00000 0 6171108.914 9026970.015 23050378.029 10 0 60385 48600.00000 0 3763511.894 10526274.800 22931763.740 10 0 60385 49500.00000 0 1505717.621 12172891.224 22367998.418 10 0 60385 50400.00000 0 -551894.974 13918858.795 21369959.339 10 0 60385 51300.00000 0 -2368761.257 15708721.321 19956953.088 10 0 60385 52200.00000 0 -3915584.598 17481751.255 18156347.695 10 0 60385 53100.00000 0 -5175312.783 19174415.199 16003048.271 10 0 60385 54000.00000 0 -6143597.068 20722978.079 13538825.564 10 0 60385 54900.00000 0 -6828715.355 22066137.314 10811509.687 10 0 60385 55800.00000 0 -7250963.339 23147576.545 7874064.139 10 0 60385 56700.00000 0 -7441539.928 23918331.487 4783557.712 10 0 60385 57600.00000 0 -7440974.574 24338867.988 1600054.178 10 0 60385 58500.00000 0 -7297163.651 24380784.170 -1614558.416 10 0 60385 59400.00000 0 -7063099.778 24028064.366 -4797775.653 10 0 60385 60300.00000 0 -6794390.964 23277831.189 -7887697.700 10 0 60385 61200.00000 0 -6546675.580 22140563.324 -10824238.786 10 0 60385 62100.00000 0 -6373043.613 20639769.400 -13550300.928 10 0 60385 63000.00000 0 -6321574.303 18811131.213 -16012888.436 10 0 60385 63900.00000 0 -6433095.233 16701152.033 -18164141.019 10 0 60385 64800.00000 0 -6739258.361 14365366.516 -19962265.163 10 0 60385 65700.00000 0 -7261014.960 11866187.111 -21372345.689 10 0 60385 66600.00000 0 -8007554.324 9270476.973 -22367021.913 10 0 60385 67500.00000 0 -8975751.460 6646950.575 -22927015.682 10 0 60385 68400.00000 0 -10150147.418 4063510.128 -23041501.540 10 0 60385 69300.00000 0 -11503463.464 1584628.354 -22708312.357 10 0 60385 70200.00000 0 -12997627.896 -731114.139 -21933976.906 10 0 60385 71100.00000 0 -14585272.821 -2833235.263 -20733589.047 10 0 60385 72000.00000 0 -16211638.509 -4681210.900 -19130511.278 10 0 60385 72900.00000 0 -17816805.882 -6245911.245 -17155918.518 10 0 60385 73800.00000 0 -19338163.950 -7510555.602 -14848190.917 10 0 60385 74700.00000 0 -20713009.019 -8471147.281 -12252167.395 10 0 60385 75600.00000 0 -21881166.943 -9136371.969 -9418274.256 10 0 60385 76500.00000 0 -22787528.556 -9526965.395 -6401545.665 10 0 60385 77400.00000 0 -23384391.956 -9674578.241 -3260554.961 10 0 60385 78300.00000 0 -23633513.271 -9620187.355 -56277.588 10 0 60385 79200.00000 0 -23507779.727 -9412121.310 3149092.218 10 0 60385 80100.00000 0 -22992434.605 -9103784.473 6293347.841 10 0 60385 81000.00000 0 -22085802.440 -8751176.393 9315476.242 10 0 60385 81900.00000 0 -20799483.785 -8410311.725 12156839.990 10 0 60385 82800.00000 0 -19158011.018 -8134650.042 14762312.415 10 0 60385 83700.00000 0 -17197979.200 -7972644.234 17081343.991 10 0 60385 84600.00000 0 -14966687.821 -7965511.124 19068939.587 10 0 60385 85500.00000 0 -12520349.556 -8145318.434 20686527.976 99